Regional Weather Roundup
Issued by NWS Boston, MA

Home | Current Version | Previous Version | Text Only | Print | Product List | Glossary On
Versions: 1 2 3 4 5 6 7 8 9 10 11 12 13 14 15 16 17 18 19 20 21 22 23 24 25 26 27
000
ASUS41 KBOX 291210
RWRBOX

REGIONAL WEATHER ROUNDUP
NATIONAL WEATHER SERVICE TAUNTON MA
800 AM EDT SAT APR 29 2017

NOTE:  "FAIR" INDICATES FEW OR NO CLOUDS BELOW 12,000 FEET WITH NO
SIGNIFICANT WEATHER AND/OR OBSTRUCTIONS TO VISIBILITY.

MAZALL-291300-
EASTERN MASSACHUSETTS

CITY           SKY/WX    TMP DP  RH WIND       PRES   REMARKS
BOSTON         PTSUNNY   68  54  60 W5        29.97S
6HR MIN TEMP:  59; 6HR MAX TEMP:  68;

BEVERLY        CLOUDY    65  58  78 SW3       29.96S
LAWRENCE       CLOUDY    66  57  72 S3        29.98S
BEDFORD        CLOUDY    64  56  75 CALM      29.95F
BLUE HILL        N/A     66  50  56 SW10      29.98R
NORWOOD        CLOUDY    66  56  70 CALM      29.97R
MARSHFIELD     CLOUDY    66  55  68 VRB5      29.97R
PLYMOUTH       CLOUDY    59  52  77 S6        30.00R
TAUNTON        CLOUDY    64  52  64 S7        29.99R
NEW BEDFORD    CLOUDY    61  54  77 CALM      30.00R
$$

MAZALL-291300-
CAPE COD AND THE ISLANDS

CITY           SKY/WX    TMP DP  RH WIND       PRES   REMARKS
FALMOUTH       CLOUDY    59  55  88 MISG      30.02R
HYANNIS        CLOUDY    59  54  83 SW6       29.99R
CHATHAM        PTSUNNY   54  53  97 SW9       30.02R
PROVINCETOWN   PTSUNNY   58  52  80 S8        29.99S
NANTUCKET      CLOUDY    53  52  96 SW7       30.04R FOG
MARTHAS VNYRD  CLOUDY    57  55  93 S6        30.02R
$$

MAZALL-291300-
CENTRAL AND WESTERN MASSACHUSETTS

CITY           SKY/WX    TMP DP  RH WIND       PRES   REMARKS
WORCESTER      CLOUDY    64  49  57 SW6       29.99S
6HR MIN TEMP:  60; 6HR MAX TEMP:  64;

FITCHBURG      CLOUDY    65  58  78 CALM      29.96F
ORANGE         CLOUDY    58  55  90 CALM      29.98S
SPRINGFIELD    PTSUNNY   63  56  78 CALM      29.96R
WESTFIELD      CLOUDY    61  57  87 SW5       29.96R
NORTH ADAMS    CLOUDY    60  52  74 SE3       29.97F
PITTSFIELD     CLOUDY    59  53  80 N3        29.97F
$$

RIZALL-291300-
RHODE ISLAND

CITY           SKY/WX    TMP DP  RH WIND       PRES   REMARKS
PROVIDENCE     CLOUDY    63  55  75 CALM      30.00R
6HR MIN TEMP:  56; 6HR MAX TEMP:  65;

NEWPORT        CLOUDY    57  55  93 S5        29.99F
BLOCK ISLAND   CLOUDY    54  54 100 SW14      30.04R FOG
SMITHFIELD     CLOUDY    66  50  56 VRB5      30.00R
WESTERLY       CLOUDY    57  55  93 S9        30.01S FOG
$$

CTZALL-291300-
CONNECTICUT

CITY           SKY/WX    TMP DP  RH WIND       PRES   REMARKS
BRADLEY INTL   CLOUDY    65  53  65 S5        29.97R
6HR MIN TEMP:  61; 6HR MAX TEMP:  65;

HARTFORD       CLOUDY    67  53  61 S3        29.97R
BRIDGEPORT     PTSUNNY   66  57  72 N3        29.96F
DANBURY        CLOUDY    62  58  86 CALM      29.98F
GROTON         CLOUDY    57  54  89 S8        29.99F
NEW HAVEN      CLOUDY    61  54  77 S7        29.97F
CHESTER        FAIR      68  57  68 S5        29.99F
MERIDEN        PTSUNNY   66  55  67 S6        29.98S
WILLIMANTIC    CLOUDY    64  57  78 CALM      29.99S
OXFORD         MOSUNNY   66  50  55 SE3       30.00R
$$

MEZ002-015-021-024-NHZ003-005-008-011-012-014-VTZ005-008-291300-
NORTHERN NEW ENGLAND

CITY           SKY/WX    TMP DP  RH WIND       PRES   REMARKS
PORTLAND ME    CLOUDY    58  48  69 S5        29.92F
6HR MIN TEMP:  52; 6HR MAX TEMP:  61;

BANGOR ME      CLOUDY    49  49 100 S8        29.92S
CONCORD NH     CLOUDY    59  49  69 CALM      29.95F
MANCHESTER NH  CLOUDY    61  49  64 CALM      29.94F
NASHUA NH      CLOUDY    62  56  80 CALM      29.96F
PORTSMOUTH NH  CLOUDY    62  50  63 CALM      29.94S
JAFFREY NH     CLOUDY    60  56  86 CALM      29.99F
KEENE NH       PTSUNNY   58  53  84 MISG      29.97F
BURLINGTON VT  PTSUNNY   64  46  52 S5        29.93R
MT. WASHINGTON PTSUNNY   43  36  75 W61G71      N/A  WCI  29
$$

NYZ052-076-291300-
EASTERN NEW YORK

CITY           SKY/WX    TMP DP  RH WIND       PRES   REMARKS
ALBANY         CLOUDY    65  52  62 CALM      29.95F
6HR MIN TEMP:  61; 6HR MAX TEMP:  65; 6HR PCP: TRACE;

NEW YORK CITY  PTSUNNY   67  63  87 E5        29.97S
6HR MIN TEMP:  65; 6HR MAX TEMP:  74; 6HR PCP:  0.06;

$$

ANZALL-291300-
MARINE OBSERVATIONS

STATION/POSITION TIME  TEMP    WIND        PRES    VSBY  WAVE
                       AIR SEA DIR/SP/G                  HT/PER
                 (UTC) (F)     (DEG/KT/KT) (MB)    (MI)  (FT/S)
BOSTON BUOY      1050   56 49  170/  6/  8 1014.0          2/ 8
BUZZARDS BAY     1100   51     270/  7/  7 1016.4R
NANTUCKET SOUND  1150      47              1016.5R         1/ 9
MASS BAY-STELLWA 1104   51 47  190/  6/  6 1014.1F         3/ 8
ISLE OF SHOALS   1100   63     220/ 12/ 13 1013.9R
S OF BLOCK IS    1155      48                N/A           4/ 8
$$

......................KEY.........................
  SKY/WX - SKY CONDITION/PRESENT WEATHER
  TMP    - TEMPERATURE IN FAHRENHEIT
  DWPT   - DEWPOINT IN FAHRENHEIT
  RH     - RELATIVE HUMIDITY IN PERCENT
  WIND   - DIRECTION AND SPEED IN MPH
  PRES   - MEAN SEA LEVEL PRESSURE IN INCHES OF HG
  WCI    - WIND CHILL INDEX
  VSB    - VISIBILITY IN MILES
  HX     - HEAT INDEX
  TC     - TEMPERATURE IN CELSIUS
  VRB    - VARIABLE WIND DIRECTION
  N/A    - NOT AVAILABLE




USA.gov is the U.S. government's official web portal to all federal, state and local government web resources and services.